Westhampton Beach, NY

3:44 AM EDT on May 29, 2017 (GMT -0400)
The Gabreski

Weather History for KFOK - November, 2012

Change the Weather History Date:

Friday, November 30, 2012

  Actual Average Record
Temperature  
Mean Temperature 34 °F -  
Max Temperature 46 °F 47 °F 64 °F (2001)
Min Temperature 23 °F 28 °F 21 °F (1996)
Degree Days  
Heating Degree Days 30    
Moisture  
Dew Point 27 °F    
Average Humidity 67    
Maximum Humidity 85    
Minimum Humidity 49    
Precipitation  
Precipitation 0.00 in - - ()
Sea Level Pressure  
Sea Level Pressure 30.41 in    
Wind  
Wind Speed 5 mph (NE)    
Max Wind Speed 13 mph    
Max Gust Speed 17 mph    
Visibility 10 miles    
Events      
Averages and records for this station are not official NWS values.
T = Trace of Precipitation, MM = Missing Value Source: NWS Daily Summary

Daily Weather History Graph

Daily Weather History Graph

Search for Another Location

Airport or City:

Trip Planner

Search our weather history database for the weather conditions in past years. The results will help you decide how hot, cold, wet, or windy it might be!

Date:

Astronomy

Nov. 30, 2012 Rise Set
Actual Time 6:54 AM EST 4:23 PM EST
Civil Twilight 6:24 AM EST 4:54 PM EST
Nautical Twilight 5:50 AM EST 5:28 PM EST
Astronomical Twilight 5:17 AM EST 6:01 PM EST
Moon 6:15 PM EST (11/30) 8:24 AM EST (11/30)
Length of Visible Light 10h 29m
Length of Day
9h 28m
Waning Gibbous, 96% of the Moon is Illuminated
Nov 30
Waning Gibbous
Dec 6
Last Quarter
Dec 13
New
Dec 20
First Quarter
Dec 28
Full

Hourly Weather History & Observations

Time (EST) Temp. Windchill Dew Point Humidity Pressure Visibility Wind Dir Wind Speed Gust Speed Precip Events Conditions
12:53 AM 35.1 °F 29.3 °F 21.9 °F 59% 30.33 in 10.0 mi WSW 6.9 mph - N/A   Clear
1:53 AM 32.0 °F 26.4 °F 21.9 °F 66% 30.34 in 10.0 mi WSW 5.8 mph - N/A   Clear
2:53 AM 30.0 °F - 21.0 °F 69% 30.33 in 10.0 mi Calm Calm - N/A   Clear
3:53 AM 27.0 °F - 19.9 °F 75% 30.33 in 9.0 mi Calm Calm - N/A   Clear
4:53 AM 25.0 °F - 19.9 °F 81% 30.35 in 8.0 mi Calm Calm - N/A   Clear
5:53 AM 24.1 °F - 19.0 °F 81% 30.36 in 8.0 mi Calm Calm - N/A   Clear
6:53 AM 23.0 °F - 19.0 °F 85% 30.38 in 10.0 mi Calm Calm - N/A   Clear
7:53 AM 27.0 °F - 23.0 °F 85% 30.40 in 7.0 mi Calm Calm - N/A   Clear
8:53 AM 42.1 °F 40.2 °F 30.0 °F 62% 30.41 in 10.0 mi North 3.5 mph - N/A   Clear
9:53 AM 44.1 °F 39.0 °F 26.1 °F 49% 30.43 in 10.0 mi NNE 9.2 mph - N/A   Mostly Cloudy
10:53 AM 46.0 °F 41.9 °F 28.0 °F 50% 30.43 in 10.0 mi NE 8.1 mph - N/A   Scattered Clouds
12:53 PM 46.0 °F 41.9 °F 30.9 °F 56% 30.41 in 10.0 mi East 8.1 mph - N/A   Overcast
1:53 PM 44.1 °F 40.1 °F 32.0 °F 63% 30.41 in 10.0 mi East 6.9 mph - N/A   Overcast
2:53 PM 42.1 °F 36.6 °F 32.0 °F 67% 30.42 in 10.0 mi ENE 9.2 mph - N/A   Overcast
3:53 PM 41.0 °F 35.8 °F 30.9 °F 67% 30.43 in 10.0 mi NE 8.1 mph - N/A   Overcast
4:53 PM 39.9 °F 33.9 °F 28.9 °F 65% 30.43 in 10.0 mi NE 9.2 mph - N/A   Overcast
5:53 PM 39.9 °F 33.9 °F 28.0 °F 63% 30.44 in 10.0 mi NE 9.2 mph - N/A   Overcast
6:36 PM 39.2 °F 33.0 °F 28.4 °F 65% 30.45 in 10.0 mi ENE 9.2 mph - N/A   Overcast
6:53 PM 39.9 °F 35.8 °F 28.9 °F 65% 30.46 in 10.0 mi ENE 5.8 mph - N/A   Overcast
7:53 PM 39.9 °F 32.5 °F 28.0 °F 63% 30.48 in 10.0 mi NE 12.7 mph - N/A   Overcast
8:53 PM 39.0 °F 34.0 °F 28.9 °F 67% 30.48 in 10.0 mi NE 6.9 mph - N/A   Overcast
9:53 PM 39.9 °F 33.9 °F 30.9 °F 70% 30.48 in 10.0 mi ENE 9.2 mph - N/A   Overcast
10:53 PM 39.9 °F 33.9 °F 30.9 °F 70% 30.48 in 10.0 mi ENE 9.2 mph - N/A   Overcast
11:53 PM 39.9 °F 32.9 °F 30.9 °F 70% 30.48 in 10.0 mi ENE 11.5 mph 17.3 mph N/A   Overcast